Year,Month,Day,Hour,Minute,Value (Times are PST for temperature in C)
2018,05,03,00,00,9.40
2018,05,03,00,01,9.40
2018,05,03,00,02,9.40
2018,05,03,00,03,9.40
2018,05,03,00,04,9.40
2018,05,03,00,05,9.40
2018,05,03,00,06,9.40
2018,05,03,00,07,9.40
2018,05,03,00,08,9.40
2018,05,03,00,09,9.40
2018,05,03,00,10,9.40
2018,05,03,00,11,9.40
2018,05,03,00,12,9.40
2018,05,03,00,13,9.40
2018,05,03,00,14,9.30
2018,05,03,00,15,9.30
2018,05,03,00,16,9.30
2018,05,03,00,17,9.30
2018,05,03,00,18,9.30
2018,05,03,00,19,9.30
2018,05,03,00,20,9.30
2018,05,03,00,21,9.30
2018,05,03,00,22,9.30
2018,05,03,00,23,9.30
2018,05,03,00,24,9.30
2018,05,03,00,25,9.30
2018,05,03,00,26,9.30
2018,05,03,00,27,9.20
2018,05,03,00,28,9.20
2018,05,03,00,29,9.20
2018,05,03,00,30,9.20
2018,05,03,00,31,9.20
2018,05,03,00,32,9.20
2018,05,03,00,33,9.20
2018,05,03,00,34,9.20
2018,05,03,00,35,9.10
2018,05,03,00,36,9.10
2018,05,03,00,37,9.10
2018,05,03,00,38,9.10
2018,05,03,00,39,9.10
2018,05,03,00,40,9.10
2018,05,03,00,41,9.10
2018,05,03,00,42,9.10
2018,05,03,00,43,9.10
2018,05,03,00,44,9.10
2018,05,03,00,45,9.10
2018,05,03,00,46,9.00
2018,05,03,00,47,9.00
2018,05,03,00,48,9.00
2018,05,03,00,49,9.00
2018,05,03,00,50,9.00
2018,05,03,00,51,8.90
2018,05,03,00,52,8.90
2018,05,03,00,53,8.90
2018,05,03,00,54,8.90
2018,05,03,00,55,8.90
2018,05,03,00,56,8.90
2018,05,03,00,57,8.80
2018,05,03,00,58,8.80
2018,05,03,00,59,8.80
2018,05,03,01,00,8.80
2018,05,03,01,01,8.80
2018,05,03,01,02,8.80
2018,05,03,01,03,8.80
2018,05,03,01,04,8.80
2018,05,03,01,05,8.80
2018,05,03,01,06,8.80
2018,05,03,01,07,8.80
2018,05,03,01,08,8.80
2018,05,03,01,09,8.80
2018,05,03,01,10,8.80
2018,05,03,01,11,8.80
2018,05,03,01,12,8.70
2018,05,03,01,13,8.70
2018,05,03,01,14,8.70
2018,05,03,01,15,8.70
2018,05,03,01,16,8.70
2018,05,03,01,17,8.70
2018,05,03,01,18,8.70
2018,05,03,01,19,8.70
2018,05,03,01,20,8.70
2018,05,03,01,21,8.70
2018,05,03,01,22,8.60
2018,05,03,01,23,8.60
2018,05,03,01,24,8.60
2018,05,03,01,25,8.60
2018,05,03,01,26,8.60
2018,05,03,01,27,8.60
2018,05,03,01,28,8.60
2018,05,03,01,29,8.60
2018,05,03,01,30,8.60
2018,05,03,01,31,8.60
2018,05,03,01,32,8.60
2018,05,03,01,33,8.60
2018,05,03,01,34,8.60
2018,05,03,01,35,8.60
2018,05,03,01,36,8.60
2018,05,03,01,37,8.60
2018,05,03,01,38,8.50
2018,05,03,01,39,8.50
2018,05,03,01,40,8.50
2018,05,03,01,41,8.50
2018,05,03,01,42,8.50
2018,05,03,01,43,8.50
2018,05,03,01,44,8.50
2018,05,03,01,45,8.40
2018,05,03,01,46,8.40
2018,05,03,01,47,8.40
2018,05,03,01,48,8.40
2018,05,03,01,49,8.40
2018,05,03,01,50,8.40
2018,05,03,01,51,8.40
2018,05,03,01,52,8.40
2018,05,03,01,53,8.40
2018,05,03,01,54,8.30
2018,05,03,01,55,8.30
2018,05,03,01,56,8.30
2018,05,03,01,57,8.30
2018,05,03,01,58,8.30
2018,05,03,01,59,8.30
2018,05,03,02,00,8.30
2018,05,03,02,01,8.30
2018,05,03,02,02,8.30
2018,05,03,02,03,8.30
2018,05,03,02,04,8.30
2018,05,03,02,05,8.30
2018,05,03,02,06,8.30
2018,05,03,02,07,8.20
2018,05,03,02,08,8.20
2018,05,03,02,09,8.20
2018,05,03,02,10,8.20
2018,05,03,02,11,8.20
2018,05,03,02,12,8.20
2018,05,03,02,13,8.20
2018,05,03,02,14,8.20
2018,05,03,02,15,8.20
2018,05,03,02,16,8.20
2018,05,03,02,17,8.20
2018,05,03,02,18,8.20
2018,05,03,02,19,8.20
2018,05,03,02,20,8.20
2018,05,03,02,21,8.20
2018,05,03,02,22,8.10
2018,05,03,02,23,8.10
2018,05,03,02,24,8.10
2018,05,03,02,25,8.10
2018,05,03,02,26,8.10
2018,05,03,02,27,8.10
2018,05,03,02,28,8.10
2018,05,03,02,29,8.10
2018,05,03,02,30,8.10
2018,05,03,02,31,8.10
2018,05,03,02,32,8.10
2018,05,03,02,33,8.10
2018,05,03,02,34,8.10
2018,05,03,02,35,8.10
2018,05,03,02,36,8.10
2018,05,03,02,37,8.00
2018,05,03,02,38,8.00
2018,05,03,02,39,8.00
2018,05,03,02,40,8.00
2018,05,03,02,41,8.00
2018,05,03,02,42,8.00
2018,05,03,02,43,8.00
2018,05,03,02,44,8.00
2018,05,03,02,45,7.90
2018,05,03,02,46,8.00
2018,05,03,02,47,8.00
2018,05,03,02,48,7.90
2018,05,03,02,49,8.00
2018,05,03,02,50,8.00
2018,05,03,02,51,7.90
2018,05,03,02,52,8.00
2018,05,03,02,53,7.90
2018,05,03,02,54,7.90
2018,05,03,02,55,7.90
2018,05,03,02,56,7.90
2018,05,03,02,57,7.90
2018,05,03,02,58,7.90
2018,05,03,02,59,7.90
2018,05,03,03,00,7.90
2018,05,03,03,01,7.90
2018,05,03,03,02,7.90
2018,05,03,03,03,7.90
2018,05,03,03,04,7.90
2018,05,03,03,05,7.90
2018,05,03,03,06,7.90
2018,05,03,03,07,7.90
2018,05,03,03,08,7.80
2018,05,03,03,09,7.80
2018,05,03,03,10,7.80
2018,05,03,03,11,7.80
2018,05,03,03,12,7.80
2018,05,03,03,13,7.80
2018,05,03,03,14,7.80
2018,05,03,03,15,7.80
2018,05,03,03,16,7.80
2018,05,03,03,17,7.80
2018,05,03,03,18,7.80
2018,05,03,03,19,7.80
2018,05,03,03,20,7.80
2018,05,03,03,21,7.80
2018,05,03,03,22,7.80
2018,05,03,03,23,7.80
2018,05,03,03,24,7.80
2018,05,03,03,25,7.70
2018,05,03,03,26,7.70
2018,05,03,03,27,7.70
2018,05,03,03,28,7.70
2018,05,03,03,29,7.70
2018,05,03,03,30,7.70
2018,05,03,03,31,7.70
2018,05,03,03,32,7.70
2018,05,03,03,33,7.70
2018,05,03,03,34,7.70
2018,05,03,03,35,7.70
2018,05,03,03,36,7.70
2018,05,03,03,37,7.70
2018,05,03,03,38,7.70
2018,05,03,03,39,7.70
2018,05,03,03,40,7.70
2018,05,03,03,41,7.70
2018,05,03,03,42,7.70
2018,05,03,03,43,7.70
2018,05,03,03,44,7.70
2018,05,03,03,45,7.70
2018,05,03,03,46,7.60
2018,05,03,03,47,7.60
2018,05,03,03,48,7.60
2018,05,03,03,49,7.60
2018,05,03,03,50,7.60
2018,05,03,03,51,7.60
2018,05,03,03,52,7.60
2018,05,03,03,53,7.60
2018,05,03,03,54,7.60
2018,05,03,03,55,7.60
2018,05,03,03,56,7.60
2018,05,03,03,57,7.60
2018,05,03,03,58,7.60
2018,05,03,03,59,7.50
2018,05,03,04,00,7.50
2018,05,03,04,01,7.50
2018,05,03,04,02,7.50
2018,05,03,04,03,7.50
2018,05,03,04,04,7.50
2018,05,03,04,05,7.50
2018,05,03,04,06,7.50
2018,05,03,04,07,7.50
2018,05,03,04,08,7.50
2018,05,03,04,09,7.50
2018,05,03,04,10,7.50
2018,05,03,04,11,7.50
2018,05,03,04,12,7.50
2018,05,03,04,13,7.50
2018,05,03,04,14,7.50
2018,05,03,04,15,7.50
2018,05,03,04,16,7.50
2018,05,03,04,17,7.50
2018,05,03,04,18,7.50
2018,05,03,04,19,7.40
2018,05,03,04,20,7.40
2018,05,03,04,21,7.40
2018,05,03,04,22,7.40
2018,05,03,04,23,7.40
2018,05,03,04,24,7.40
2018,05,03,04,25,7.40
2018,05,03,04,26,7.40
2018,05,03,04,27,7.40
2018,05,03,04,28,7.40
2018,05,03,04,29,7.40
2018,05,03,04,30,7.30
2018,05,03,04,31,7.30
2018,05,03,04,32,7.30
2018,05,03,04,33,7.30
2018,05,03,04,34,7.30
2018,05,03,04,35,7.30
2018,05,03,04,36,7.30
2018,05,03,04,37,7.30
2018,05,03,04,38,7.30
2018,05,03,04,39,7.30
2018,05,03,04,40,7.30
2018,05,03,04,41,7.30
2018,05,03,04,42,7.30
2018,05,03,04,43,7.30
2018,05,03,04,44,7.30
2018,05,03,04,45,7.30
2018,05,03,04,46,7.30
2018,05,03,04,47,7.30
2018,05,03,04,48,7.30
2018,05,03,04,49,7.30
2018,05,03,04,50,7.30
2018,05,03,04,51,7.20
2018,05,03,04,52,7.20
2018,05,03,04,53,7.20
2018,05,03,04,54,7.20
2018,05,03,04,55,7.20
2018,05,03,04,56,7.20
2018,05,03,04,57,7.20
2018,05,03,04,58,7.20
2018,05,03,04,59,7.20
2018,05,03,05,00,7.20
2018,05,03,05,01,7.20
2018,05,03,05,02,7.20
2018,05,03,05,03,7.20
2018,05,03,05,04,7.20
2018,05,03,05,05,7.20
2018,05,03,05,06,7.20
2018,05,03,05,07,7.20
2018,05,03,05,08,7.20
2018,05,03,05,09,7.20
2018,05,03,05,10,7.20
2018,05,03,05,11,7.20
2018,05,03,05,12,7.20
2018,05,03,05,13,7.20
2018,05,03,05,14,7.20
2018,05,03,05,15,7.20
2018,05,03,05,16,7.20
2018,05,03,05,17,7.20
2018,05,03,05,18,7.20
2018,05,03,05,19,7.20
2018,05,03,05,20,7.20
2018,05,03,05,21,7.20
2018,05,03,05,22,7.20
2018,05,03,05,23,7.20
2018,05,03,05,24,7.20
2018,05,03,05,25,7.20
2018,05,03,05,26,7.20
2018,05,03,05,27,7.20
2018,05,03,05,28,7.20
2018,05,03,05,29,7.20
2018,05,03,05,30,7.20
2018,05,03,05,31,7.20
2018,05,03,05,32,7.20
2018,05,03,05,33,7.20
2018,05,03,05,34,7.20
2018,05,03,05,35,7.20
2018,05,03,05,36,7.20
2018,05,03,05,37,7.20
2018,05,03,05,38,7.20
2018,05,03,05,39,7.20
2018,05,03,05,40,7.20
2018,05,03,05,41,7.20
2018,05,03,05,42,7.20
2018,05,03,05,43,7.20
2018,05,03,05,44,7.20
2018,05,03,05,45,7.20
2018,05,03,05,46,7.20
2018,05,03,05,47,7.20
2018,05,03,05,48,7.20
2018,05,03,05,49,7.20
2018,05,03,05,50,7.20
2018,05,03,05,51,7.20
2018,05,03,05,52,7.20
2018,05,03,05,53,7.20
2018,05,03,05,54,7.20
2018,05,03,05,55,7.20
2018,05,03,05,56,7.20
2018,05,03,05,57,7.20
2018,05,03,05,58,7.20
2018,05,03,05,59,7.20
2018,05,03,06,00,7.20
2018,05,03,06,01,7.20
2018,05,03,06,02,7.20
2018,05,03,06,03,7.20
2018,05,03,06,04,7.20
2018,05,03,06,05,7.20
2018,05,03,06,06,7.20
2018,05,03,06,07,7.20
2018,05,03,06,08,7.20
2018,05,03,06,09,7.20
2018,05,03,06,10,7.20
2018,05,03,06,11,7.20
2018,05,03,06,12,7.20
2018,05,03,06,13,7.20
2018,05,03,06,14,7.20
2018,05,03,06,15,7.20
2018,05,03,06,16,7.20
2018,05,03,06,17,7.20
2018,05,03,06,18,7.20
2018,05,03,06,19,7.20
2018,05,03,06,20,7.20
2018,05,03,06,21,7.20
2018,05,03,06,22,7.20
2018,05,03,06,23,7.30
2018,05,03,06,24,7.30
2018,05,03,06,25,7.30
2018,05,03,06,26,7.30
2018,05,03,06,27,7.30
2018,05,03,06,28,7.30
2018,05,03,06,29,7.30
2018,05,03,06,30,7.30
2018,05,03,06,31,7.30
2018,05,03,06,32,7.40
2018,05,03,06,33,7.40
2018,05,03,06,34,7.40
2018,05,03,06,35,7.40
2018,05,03,06,36,7.40
2018,05,03,06,37,7.40
2018,05,03,06,38,7.50
2018,05,03,06,39,7.50
2018,05,03,06,40,7.50
2018,05,03,06,41,7.50
2018,05,03,06,42,7.50
2018,05,03,06,43,7.50
2018,05,03,06,44,7.60
2018,05,03,06,45,7.60
2018,05,03,06,46,7.60
2018,05,03,06,47,7.60
2018,05,03,06,48,7.60
2018,05,03,06,49,7.60
2018,05,03,06,50,7.60
2018,05,03,06,51,7.70
2018,05,03,06,52,7.70
2018,05,03,06,53,7.70
2018,05,03,06,54,7.70
2018,05,03,06,55,7.70
2018,05,03,06,56,7.80
2018,05,03,06,57,7.80
2018,05,03,06,58,7.80
2018,05,03,06,59,7.80
2018,05,03,07,00,7.80
2018,05,03,07,01,7.80
2018,05,03,07,02,7.90
2018,05,03,07,03,7.90
2018,05,03,07,04,7.90
2018,05,03,07,05,7.90
2018,05,03,07,06,7.90
2018,05,03,07,07,8.00
2018,05,03,07,08,8.00
2018,05,03,07,09,8.00
2018,05,03,07,10,8.10
2018,05,03,07,11,8.10
2018,05,03,07,12,8.10
2018,05,03,07,13,8.10
2018,05,03,07,14,8.10
2018,05,03,07,15,8.20
2018,05,03,07,16,8.20
2018,05,03,07,17,8.30
2018,05,03,07,18,8.30
2018,05,03,07,19,8.30
2018,05,03,07,20,8.30
2018,05,03,07,21,8.40
2018,05,03,07,22,8.40
2018,05,03,07,23,8.40
2018,05,03,07,24,8.50
2018,05,03,07,25,8.50
2018,05,03,07,26,8.60
2018,05,03,07,27,8.60
2018,05,03,07,28,8.70
2018,05,03,07,29,8.70
2018,05,03,07,30,8.70
2018,05,03,07,31,8.70
2018,05,03,07,32,8.80
2018,05,03,07,33,8.80
2018,05,03,07,34,8.90
2018,05,03,07,35,8.90
2018,05,03,07,36,8.90
2018,05,03,07,37,9.00
2018,05,03,07,38,9.00
2018,05,03,07,39,9.10
2018,05,03,07,40,9.10
2018,05,03,07,41,9.20
2018,05,03,07,42,9.20
2018,05,03,07,43,9.30
2018,05,03,07,44,9.30
2018,05,03,07,45,9.40
2018,05,03,07,46,9.40
2018,05,03,07,47,9.50
2018,05,03,07,48,9.50
2018,05,03,07,49,9.60
2018,05,03,07,50,9.70
2018,05,03,07,51,9.70
2018,05,03,07,52,9.80
2018,05,03,07,53,9.90
2018,05,03,07,54,9.90
2018,05,03,07,55,10.00
2018,05,03,07,56,10.00
2018,05,03,07,57,10.10
2018,05,03,07,58,10.10
2018,05,03,07,59,10.20
2018,05,03,08,00,10.20
2018,05,03,08,01,10.30
2018,05,03,08,02,10.30
2018,05,03,08,03,10.40
2018,05,03,08,04,10.50
2018,05,03,08,05,10.50
2018,05,03,08,06,10.60
2018,05,03,08,07,10.70
2018,05,03,08,08,10.80
2018,05,03,08,09,10.90
2018,05,03,08,10,10.90
2018,05,03,08,11,11.00
2018,05,03,08,12,11.10
2018,05,03,08,13,11.20
2018,05,03,08,14,11.30
2018,05,03,08,15,11.40
2018,05,03,08,16,11.50
2018,05,03,08,17,11.60
2018,05,03,08,18,11.70
2018,05,03,08,19,11.80
2018,05,03,08,20,12.00
2018,05,03,08,21,12.10
2018,05,03,08,22,12.20
2018,05,03,08,23,12.40
2018,05,03,08,24,12.50
2018,05,03,08,25,12.60
2018,05,03,08,26,12.80
2018,05,03,08,27,12.80
2018,05,03,08,28,13.00
2018,05,03,08,29,13.10
2018,05,03,08,30,13.20
2018,05,03,08,31,13.30
2018,05,03,08,32,13.40
2018,05,03,08,33,13.60
2018,05,03,08,34,13.70
2018,05,03,08,35,13.80
2018,05,03,08,36,14.00
2018,05,03,08,37,14.10
2018,05,03,08,38,14.20
2018,05,03,08,39,14.30
2018,05,03,08,40,14.30
2018,05,03,08,41,14.40
2018,05,03,08,42,14.40
2018,05,03,08,43,14.50
2018,05,03,08,44,14.50
2018,05,03,08,45,14.60
2018,05,03,08,46,14.60
2018,05,03,08,47,14.60
2018,05,03,08,48,14.60
2018,05,03,08,49,14.60
2018,05,03,08,50,14.60
2018,05,03,08,51,14.60
2018,05,03,08,52,14.60
2018,05,03,08,53,14.70
2018,05,03,08,54,14.70
2018,05,03,08,55,14.70
2018,05,03,08,56,14.70
2018,05,03,08,57,14.60
2018,05,03,08,58,14.60
2018,05,03,08,59,14.50
2018,05,03,09,00,14.50
2018,05,03,09,01,14.40
2018,05,03,09,02,14.40
2018,05,03,09,03,14.40
2018,05,03,09,04,14.40
2018,05,03,09,05,14.40
2018,05,03,09,06,14.30
2018,05,03,09,07,14.30
2018,05,03,09,08,14.30
2018,05,03,09,09,14.30
2018,05,03,09,10,14.40
2018,05,03,09,11,14.40
2018,05,03,09,12,14.40
2018,05,03,09,13,14.40
2018,05,03,09,14,14.50
2018,05,03,09,15,14.50
2018,05,03,09,16,14.60
2018,05,03,09,17,14.60
2018,05,03,09,18,14.60
2018,05,03,09,19,14.60
2018,05,03,09,20,14.70
2018,05,03,09,21,14.70
2018,05,03,09,22,14.70
2018,05,03,09,23,14.70
2018,05,03,09,24,14.70
2018,05,03,09,25,14.70
2018,05,03,09,26,14.70
2018,05,03,09,27,14.70
2018,05,03,09,28,14.70
2018,05,03,09,29,14.70
2018,05,03,09,30,14.70
2018,05,03,09,31,14.80
2018,05,03,09,32,14.80
2018,05,03,09,33,14.90
2018,05,03,09,34,15.00
2018,05,03,09,35,15.00
2018,05,03,09,36,15.10
2018,05,03,09,37,15.20
2018,05,03,09,38,15.20
2018,05,03,09,39,15.30
2018,05,03,09,40,15.30
2018,05,03,09,41,15.40
2018,05,03,09,42,15.40
2018,05,03,09,43,15.50
2018,05,03,09,44,15.50
2018,05,03,09,45,15.50
2018,05,03,09,46,15.50
2018,05,03,09,47,15.50
2018,05,03,09,48,15.50
2018,05,03,09,49,15.50
2018,05,03,09,50,15.40
2018,05,03,09,51,15.40
2018,05,03,09,52,15.40
2018,05,03,09,53,15.40
2018,05,03,09,54,15.40
2018,05,03,09,55,15.40
2018,05,03,09,56,15.50
2018,05,03,09,57,15.60
2018,05,03,09,58,15.70
2018,05,03,09,59,15.80
2018,05,03,10,00,15.80
2018,05,03,10,01,15.80
2018,05,03,10,02,15.90
2018,05,03,10,03,16.00
2018,05,03,10,04,16.10
2018,05,03,10,05,16.20
2018,05,03,10,06,16.30
2018,05,03,10,07,16.40
2018,05,03,10,08,16.50
2018,05,03,10,09,16.60
2018,05,03,10,10,16.70
2018,05,03,10,11,16.70
2018,05,03,10,12,16.80
2018,05,03,10,13,16.80
2018,05,03,10,14,16.90
2018,05,03,10,15,16.90
2018,05,03,10,16,17.00
2018,05,03,10,17,17.10
2018,05,03,10,18,17.10
2018,05,03,10,19,17.20
2018,05,03,10,20,17.20
2018,05,03,10,21,17.20
2018,05,03,10,22,17.20
2018,05,03,10,23,17.30
2018,05,03,10,24,17.30
2018,05,03,10,25,17.40
2018,05,03,10,26,17.50
2018,05,03,10,27,17.50
2018,05,03,10,28,17.60
2018,05,03,10,29,17.60
2018,05,03,10,30,17.60
2018,05,03,10,31,17.60
2018,05,03,10,32,17.60
2018,05,03,10,33,17.60
2018,05,03,10,34,17.70
2018,05,03,10,35,17.70
2018,05,03,10,36,17.70
2018,05,03,10,37,17.70
2018,05,03,10,38,17.60
2018,05,03,10,39,17.50
2018,05,03,10,40,17.40
2018,05,03,10,41,17.40
2018,05,03,10,42,17.40
2018,05,03,10,43,17.30
2018,05,03,10,44,17.40
2018,05,03,10,45,17.40
2018,05,03,10,46,17.50
2018,05,03,10,47,17.60
2018,05,03,10,48,17.50
2018,05,03,10,49,17.40
2018,05,03,10,50,17.40
2018,05,03,10,51,17.40
2018,05,03,10,52,17.50
2018,05,03,10,53,17.60
2018,05,03,10,54,17.70
2018,05,03,10,55,17.80
2018,05,03,10,56,17.80
2018,05,03,10,57,17.80
2018,05,03,10,58,17.80
2018,05,03,10,59,17.70
2018,05,03,11,00,17.80
2018,05,03,11,01,17.80
2018,05,03,11,02,17.80
2018,05,03,11,03,17.80
2018,05,03,11,04,17.80
2018,05,03,11,05,17.80
2018,05,03,11,06,17.80
2018,05,03,11,07,17.80
2018,05,03,11,08,17.80
2018,05,03,11,09,17.80
2018,05,03,11,10,17.80
2018,05,03,11,11,17.80
2018,05,03,11,12,17.80
2018,05,03,11,13,17.80
2018,05,03,11,14,17.70
2018,05,03,11,15,17.70
2018,05,03,11,16,17.80
2018,05,03,11,17,17.80
2018,05,03,11,18,17.90
2018,05,03,11,19,17.90
2018,05,03,11,20,17.90
2018,05,03,11,21,17.90
2018,05,03,11,22,18.00
2018,05,03,11,23,18.10
2018,05,03,11,24,18.20
2018,05,03,11,25,18.40
2018,05,03,11,26,18.50
2018,05,03,11,27,18.50
2018,05,03,11,28,18.50
2018,05,03,11,29,18.40
2018,05,03,11,30,18.40
2018,05,03,11,31,18.40
2018,05,03,11,32,18.50
2018,05,03,11,33,18.60
2018,05,03,11,34,18.70
2018,05,03,11,35,18.90
2018,05,03,11,36,19.00
2018,05,03,11,37,19.10
2018,05,03,11,38,19.10
2018,05,03,11,39,19.00
2018,05,03,11,40,18.90
2018,05,03,11,41,18.90
2018,05,03,11,42,18.80
2018,05,03,11,43,18.90
2018,05,03,11,44,18.90
2018,05,03,11,45,18.90
2018,05,03,11,46,18.90
2018,05,03,11,47,18.90
2018,05,03,11,48,18.90
2018,05,03,11,49,18.90
2018,05,03,11,50,19.00
2018,05,03,11,51,19.00
2018,05,03,11,52,19.10
2018,05,03,11,53,19.10
2018,05,03,11,54,19.10
2018,05,03,11,55,19.10
2018,05,03,11,56,19.10
2018,05,03,11,57,19.00
2018,05,03,11,58,18.90
2018,05,03,11,59,18.90
2018,05,03,12,00,18.90
2018,05,03,12,01,18.90
2018,05,03,12,02,18.80
2018,05,03,12,03,18.80
2018,05,03,12,04,18.80
2018,05,03,12,05,18.70
2018,05,03,12,06,18.70
2018,05,03,12,07,18.70
2018,05,03,12,08,18.70
2018,05,03,12,09,18.70
2018,05,03,12,10,18.70
2018,05,03,12,11,18.60
2018,05,03,12,12,18.60
2018,05,03,12,13,18.70
2018,05,03,12,14,18.70
2018,05,03,12,15,18.80
2018,05,03,12,16,18.80
2018,05,03,12,17,18.70
2018,05,03,12,18,18.70
2018,05,03,12,19,18.80
2018,05,03,12,20,18.70
2018,05,03,12,21,18.60
2018,05,03,12,22,18.60
2018,05,03,12,23,18.50
2018,05,03,12,24,18.50
2018,05,03,12,25,18.40
2018,05,03,12,26,18.40
2018,05,03,12,27,18.30
2018,05,03,12,28,18.30
2018,05,03,12,29,18.30
2018,05,03,12,30,18.40
2018,05,03,12,31,18.40
2018,05,03,12,32,18.50
2018,05,03,12,33,18.50
2018,05,03,12,34,18.60
2018,05,03,12,35,18.70
2018,05,03,12,36,18.60
2018,05,03,12,37,18.60
2018,05,03,12,38,18.60
2018,05,03,12,39,18.70
2018,05,03,12,40,18.70
2018,05,03,12,41,18.70
2018,05,03,12,42,18.70
2018,05,03,12,43,18.80
2018,05,03,12,44,18.80
2018,05,03,12,45,18.90
2018,05,03,12,46,19.00
2018,05,03,12,47,19.00
2018,05,03,12,48,19.10
2018,05,03,12,49,19.10
2018,05,03,12,50,19.10
2018,05,03,12,51,19.10
2018,05,03,12,52,19.10
2018,05,03,12,53,19.10
2018,05,03,12,54,19.00
2018,05,03,12,55,19.00
2018,05,03,12,56,18.90
2018,05,03,12,57,18.80
2018,05,03,12,58,18.80
2018,05,03,12,59,18.90
2018,05,03,13,00,19.00
2018,05,03,13,01,19.10
2018,05,03,13,02,19.10
2018,05,03,13,03,19.10
2018,05,03,13,04,19.10
2018,05,03,13,05,19.10
2018,05,03,13,06,19.10
2018,05,03,13,07,19.20
2018,05,03,13,08,19.20
2018,05,03,13,09,19.20
2018,05,03,13,10,19.20
2018,05,03,13,11,19.20
2018,05,03,13,12,19.30
2018,05,03,13,13,19.30
2018,05,03,13,14,19.30
2018,05,03,13,15,19.30
2018,05,03,13,16,19.20
2018,05,03,13,17,19.20
2018,05,03,13,18,19.30
2018,05,03,13,19,19.30
2018,05,03,13,20,19.30
2018,05,03,13,21,19.30
2018,05,03,13,22,19.30
2018,05,03,13,23,19.40
2018,05,03,13,24,19.40
2018,05,03,13,25,19.40
2018,05,03,13,26,19.30
2018,05,03,13,27,19.30
2018,05,03,13,28,19.30
2018,05,03,13,29,19.40
2018,05,03,13,30,19.40
2018,05,03,13,31,19.50
2018,05,03,13,32,19.60
2018,05,03,13,33,19.60
2018,05,03,13,34,19.60
2018,05,03,13,35,19.50
2018,05,03,13,36,19.40
2018,05,03,13,37,19.30
2018,05,03,13,38,19.30
2018,05,03,13,39,19.20
2018,05,03,13,40,19.20
2018,05,03,13,41,19.20
2018,05,03,13,42,19.10
2018,05,03,13,43,19.10
2018,05,03,13,44,19.00
2018,05,03,13,45,18.90
2018,05,03,13,46,19.00
2018,05,03,13,47,19.00
2018,05,03,13,48,19.00
2018,05,03,13,49,19.10
2018,05,03,13,50,19.10
2018,05,03,13,51,19.10
2018,05,03,13,52,19.20
2018,05,03,13,53,19.20
2018,05,03,13,54,19.20
2018,05,03,13,55,19.20
2018,05,03,13,56,19.10
2018,05,03,13,57,19.10
2018,05,03,13,58,19.10
2018,05,03,13,59,19.20
2018,05,03,14,00,19.30
2018,05,03,14,01,19.30
2018,05,03,14,02,19.30
2018,05,03,14,03,19.30
2018,05,03,14,04,19.40
2018,05,03,14,05,19.50
2018,05,03,14,06,19.60
2018,05,03,14,07,19.70
2018,05,03,14,08,19.70
2018,05,03,14,09,19.60
2018,05,03,14,10,19.60
2018,05,03,14,11,19.50
2018,05,03,14,12,19.50
2018,05,03,14,13,19.50
2018,05,03,14,14,19.60
2018,05,03,14,15,19.70
2018,05,03,14,16,19.80
2018,05,03,14,17,19.80
2018,05,03,14,18,19.90
2018,05,03,14,19,19.90
2018,05,03,14,20,19.90
2018,05,03,14,21,19.80
2018,05,03,14,22,19.70
2018,05,03,14,23,19.60
2018,05,03,14,24,19.50
2018,05,03,14,25,19.40
2018,05,03,14,26,19.40
2018,05,03,14,27,19.40
2018,05,03,14,28,19.40
2018,05,03,14,29,19.50
2018,05,03,14,30,19.50
2018,05,03,14,31,19.60
2018,05,03,14,32,19.60
2018,05,03,14,33,19.60
2018,05,03,14,34,19.60
2018,05,03,14,35,19.60
2018,05,03,14,36,19.70
2018,05,03,14,37,19.70
2018,05,03,14,38,19.60
2018,05,03,14,39,19.50
2018,05,03,14,40,19.40
2018,05,03,14,41,19.30
2018,05,03,14,42,19.20
2018,05,03,14,43,19.10
2018,05,03,14,44,19.10
2018,05,03,14,45,19.00
2018,05,03,14,46,18.90
2018,05,03,14,47,18.80
2018,05,03,14,48,18.80
2018,05,03,14,49,18.80
2018,05,03,14,50,18.70
2018,05,03,14,51,18.70
2018,05,03,14,52,18.70
2018,05,03,14,53,18.70
2018,05,03,14,54,18.80
2018,05,03,14,55,18.80
2018,05,03,14,56,18.80
2018,05,03,14,57,18.90
2018,05,03,14,58,19.00
2018,05,03,14,59,19.20
2018,05,03,15,00,19.30
2018,05,03,15,01,19.50
2018,05,03,15,02,19.60
2018,05,03,15,03,19.70
2018,05,03,15,04,19.70
2018,05,03,15,05,19.70
2018,05,03,15,06,19.70
2018,05,03,15,07,19.70
2018,05,03,15,08,19.70
2018,05,03,15,09,19.60
2018,05,03,15,10,19.60
2018,05,03,15,11,19.60
2018,05,03,15,12,19.60
2018,05,03,15,13,19.60
2018,05,03,15,14,19.70
2018,05,03,15,15,19.70
2018,05,03,15,16,19.70
2018,05,03,15,17,19.70
2018,05,03,15,18,19.70
2018,05,03,15,19,19.70
2018,05,03,15,20,19.70
2018,05,03,15,21,19.70
2018,05,03,15,22,19.60
2018,05,03,15,23,19.60
2018,05,03,15,24,19.50
2018,05,03,15,25,19.40
2018,05,03,15,26,19.40
2018,05,03,15,27,19.40
2018,05,03,15,28,19.30
2018,05,03,15,29,19.30
2018,05,03,15,30,19.30
2018,05,03,15,31,19.40
2018,05,03,15,32,19.40
2018,05,03,15,33,19.40
2018,05,03,15,34,19.50
2018,05,03,15,35,19.50
2018,05,03,15,36,19.50
2018,05,03,15,37,19.60
2018,05,03,15,38,19.60
2018,05,03,15,39,19.60
2018,05,03,15,40,19.60
2018,05,03,15,41,19.70
2018,05,03,15,42,19.80
2018,05,03,15,43,19.90
2018,05,03,15,44,19.90
2018,05,03,15,45,19.90
2018,05,03,15,46,20.00
2018,05,03,15,47,20.10
2018,05,03,15,48,20.10
2018,05,03,15,49,20.20
2018,05,03,15,50,20.30
2018,05,03,15,51,20.40
2018,05,03,15,52,20.40
2018,05,03,15,53,20.40
2018,05,03,15,54,20.40
2018,05,03,15,55,20.40
2018,05,03,15,56,20.30
2018,05,03,15,57,20.20
2018,05,03,15,58,20.10
2018,05,03,15,59,20.10
2018,05,03,16,00,20.10
2018,05,03,16,01,20.10
2018,05,03,16,02,20.10
2018,05,03,16,03,20.10
2018,05,03,16,04,20.20
2018,05,03,16,05,20.30
2018,05,03,16,06,20.30
2018,05,03,16,07,20.30
2018,05,03,16,08,20.20
2018,05,03,16,09,20.20
2018,05,03,16,10,20.20
2018,05,03,16,11,20.10
2018,05,03,16,12,20.20
2018,05,03,16,13,20.20
2018,05,03,16,14,20.30
2018,05,03,16,15,20.40
2018,05,03,16,16,20.40
2018,05,03,16,17,20.50
2018,05,03,16,18,20.60
2018,05,03,16,19,20.60
2018,05,03,16,20,20.60
2018,05,03,16,21,20.70
2018,05,03,16,22,20.80
2018,05,03,16,23,20.90
2018,05,03,16,24,20.90
2018,05,03,16,25,21.00
2018,05,03,16,26,21.00
2018,05,03,16,27,21.00
2018,05,03,16,28,21.00
2018,05,03,16,29,21.00
2018,05,03,16,30,20.90
2018,05,03,16,31,20.90
2018,05,03,16,32,20.80
2018,05,03,16,33,20.70
2018,05,03,16,34,20.70
2018,05,03,16,35,20.70
2018,05,03,16,36,20.70
2018,05,03,16,37,20.70
2018,05,03,16,38,20.70
2018,05,03,16,39,20.80
2018,05,03,16,40,20.70
2018,05,03,16,41,20.70
2018,05,03,16,42,20.70
2018,05,03,16,43,20.80
2018,05,03,16,44,20.80
2018,05,03,16,45,20.80
2018,05,03,16,46,20.80
2018,05,03,16,47,20.80
2018,05,03,16,48,20.80
2018,05,03,16,49,20.90
2018,05,03,16,50,20.90
2018,05,03,16,51,21.00
2018,05,03,16,52,21.00
2018,05,03,16,53,21.10
2018,05,03,16,54,21.20
2018,05,03,16,55,21.30
2018,05,03,16,56,21.40
2018,05,03,16,57,21.40
2018,05,03,16,58,21.40
2018,05,03,16,59,21.40
2018,05,03,17,00,21.50
2018,05,03,17,01,21.50
2018,05,03,17,02,21.60
2018,05,03,17,03,21.60
2018,05,03,17,04,21.70
2018,05,03,17,05,21.70
2018,05,03,17,06,21.80
2018,05,03,17,07,21.80
2018,05,03,17,08,21.80
2018,05,03,17,09,21.80
2018,05,03,17,10,21.80
2018,05,03,17,11,21.80
2018,05,03,17,12,21.80
2018,05,03,17,13,21.80
2018,05,03,17,14,21.80
2018,05,03,17,15,21.70
2018,05,03,17,16,21.60
2018,05,03,17,17,21.60
2018,05,03,17,18,21.60
2018,05,03,17,19,21.50
2018,05,03,17,20,21.50
2018,05,03,17,21,21.50
2018,05,03,17,22,21.50
2018,05,03,17,23,21.60
2018,05,03,17,24,21.60
2018,05,03,17,25,21.60
2018,05,03,17,26,21.60
2018,05,03,17,27,21.60
2018,05,03,17,28,21.40
2018,05,03,17,29,21.30
2018,05,03,17,30,21.20
2018,05,03,17,31,21.10
2018,05,03,17,32,21.00
2018,05,03,17,33,20.90
2018,05,03,17,34,20.90
2018,05,03,17,35,20.80
2018,05,03,17,36,20.80
2018,05,03,17,37,20.80
2018,05,03,17,38,20.70
2018,05,03,17,39,20.70
2018,05,03,17,40,20.70